Location: Los Gatos B&B
(42.6926°N, 77.0646°W)
Time: 15:32:20
(UTC-05:00)

Cosmos 2263 Rocket - Visible Passes

Search period start: 12 February 2016 00:00
Search period end: 22 February 2016 00:00
Orbit: 825 x 847 km, 71.0° (Epoch: 12 February)

Date Brightness Start Highest point End Pass type
(mag) Time Alt. Az. Time Alt. Az. Time Alt. Az.
12 Feb 4.2 04:14:45 10° SSE 04:19:07 24° ESE 04:23:28 10° NE visible
12 Feb 2.3 05:57:17 10° SW 06:02:40 49° WNW 06:08:05 10° NNE visible
13 Feb 4.3 03:59:03 13° SE 04:02:29 22° E 04:06:39 10° NE visible
13 Feb 2.3 05:40:52 12° SW 05:45:58 53° WNW 05:51:26 10° NNE visible
14 Feb 4.3 03:44:16 18° ESE 03:45:50 20° E 03:49:49 10° NE visible
14 Feb 2.2 05:26:03 24° SW 05:29:17 57° WNW 05:34:47 10° NNE visible
15 Feb 4.4 03:29:04 19° ESE 03:29:13 19° E 03:32:57 10° ENE visible
15 Feb 2.1 05:10:50 42° WSW 05:12:34 62° WNW 05:18:07 10° NNE visible
16 Feb 4.6 03:13:37 16° E 03:13:37 16° E 03:16:03 10° ENE visible
16 Feb 2.0 04:55:21 63° W 04:55:53 67° WNW 05:01:27 10° NNE visible
16 Feb 4.0 06:38:37 10° WNW 06:40:56 12° NW 06:43:15 10° NNW visible
17 Feb 4.9 02:57:58 13° ENE 02:57:58 13° ENE 02:59:08 10° ENE visible
17 Feb 2.1 04:39:42 68° NNW 04:39:42 68° NNW 04:44:47 10° NNE visible
17 Feb 3.9 06:21:30 10° WNW 06:24:10 13° NW 06:26:50 10° NNW visible
18 Feb 2.6 04:23:54 52° N 04:23:54 52° N 04:28:07 10° NNE visible
18 Feb 3.8 06:05:38 13° WNW 06:07:24 14° NW 06:10:22 10° NNW visible
19 Feb 3.2 04:08:00 39° NNE 04:08:00 39° NNE 04:11:27 10° NNE visible
19 Feb 3.8 05:49:43 15° WNW 05:50:38 15° NW 05:53:52 10° N visible
20 Feb 3.6 03:52:00 30° NNE 03:52:00 30° NNE 03:54:46 10° NNE visible
20 Feb 3.7 05:33:44 16° NW 05:33:52 16° NW 05:37:21 10° N visible
21 Feb 4.0 03:35:58 24° NNE 03:35:58 24° NNE 03:38:05 10° NNE visible
21 Feb 3.8 05:17:40 17° NW 05:17:40 17° NW 05:20:48 10° N visible
